Location: ????????
(55.3155°N, 39.2900°E)
Time: 18:44:44
(UTC+00:00)

ACS3 Solar Sail - Pass Details

Date: 15 November 2025
Orbit: 889 x 1003 km, 97.3° (Epoch: 06 December)

Event Time Altitude Azimuth Distance (km) Brightness Sun altitude
Rises 02:06:49 0° 11° (N) 3,547 4.9 -23.7°
Reaches altitude 10° 02:09:21 10° 4° (N) 2,615 4.1 -23.4°
Enters shadow 02:14:04 37° 312° (NW) 1,406 2.2 -22.7°
